Météo par heure à Kitin

Ce jour, 3 Mars, Mercredi

Heure Température Précipitation Vent Pression Humidité
00:00 -1°C° 0 mm 4 m/s 755 mmHg 82%
01:00 -2°C° 0 mm 4 m/s 756 mmHg 83%
02:00 -3°C° 0 mm 4 m/s 756 mmHg 86%
03:00 -3°C° 0 mm 4 m/s 756 mmHg 88%
04:00 -3°C° 0 mm 4 m/s 756 mmHg 89%
05:00 -4°C° 0 mm 3 m/s 756 mmHg 91%
06:00 -4°C° 0 mm 3 m/s 756 mmHg 91%
07:00 -4°C° 0 mm 3 m/s 757 mmHg 90%
08:00 -4°C° 0 mm 3 m/s 757 mmHg 90%
09:00 -1°C° 0 mm 3 m/s 757 mmHg 86%
10:00 0°C° 0 mm 3 m/s 757 mmHg 82%
11:00 0°C° 0 mm 4 m/s 756 mmHg 78%
12:00 +1°C° 0 mm 4 m/s 756 mmHg 73%
13:00 +3°C° 0 mm 4 m/s 756 mmHg 68%
14:00 +3°C° 0 mm 5 m/s 755 mmHg 62%
15:00 +3°C° 0 mm 4 m/s 755 mmHg 66%
16:00 +1°C° 0 mm 4 m/s 754 mmHg 69%
17:00 +2°C° 0 mm 3 m/s 754 mmHg 73%
18:00 +1°C° 0 mm 3 m/s 754 mmHg 76%
19:00 0°C° 0 mm 3 m/s 754 mmHg 79%
20:00 -1°C° 0 mm 3 m/s 753 mmHg 82%
21:00 -1°C° 0 mm 3 m/s 753 mmHg 82%
22:00 -2°C° 0 mm 4 m/s 752 mmHg 82%
23:00 -2°C° 0 mm 4 m/s 751 mmHg 82%

Demain, 4 Mars, Jeudi

Heure Température Précipitation Vent Pression Humidité
00:00 -2°C° 0 mm 4 m/s 751 mmHg 83%
01:00 -2°C° 0 mm 4 m/s 750 mmHg 83%
02:00 -2°C° 0 mm 4 m/s 749 mmHg 83%
03:00 -2°C° 0 mm 4 m/s 748 mmHg 86%
04:00 -2°C° 0 mm 5 m/s 747 mmHg 89%
05:00 -2°C° 0 mm 5 m/s 746 mmHg 92%
06:00 -2°C° 0 mm 5 m/s 746 mmHg 92%
07:00 -2°C° 0 mm 5 m/s 745 mmHg 92%
08:00 -1°C° 0 mm 5 m/s 745 mmHg 91%
09:00 0°C° 0 mm 5 m/s 744 mmHg 86%
10:00 +2°C° 0 mm 5 m/s 743 mmHg 80%
11:00 +3°C° 0 mm 6 m/s 743 mmHg 75%
12:00 +3°C° 0 mm 6 m/s 742 mmHg 76%
13:00 +4°C° 0 mm 6 m/s 742 mmHg 77%
14:00 +4°C° 0 mm 6 m/s 741 mmHg 78%
15:00 +3°C° 0 mm 5 m/s 741 mmHg 82%
16:00 +2°C° 0 mm 5 m/s 741 mmHg 86%
17:00 +1°C° 0 mm 5 m/s 741 mmHg 90%
18:00 +1°C° 0 mm 5 m/s 741 mmHg 91%
19:00 0°C° 0 mm 5 m/s 741 mmHg 92%
20:00 0°C° 0 mm 5 m/s 741 mmHg 93%
21:00 -1°C° 0.1 mm 4 m/s 742 mmHg 93%
22:00 -1°C° 0.1 mm 4 m/s 742 mmHg 94%
23:00 -1°C° 0.1 mm 3 m/s 742 mmHg 94%

Après-demain, 5 Mars, Vendredi

Heure Température Précipitation Vent Pression Humidité
00:00 -1°C° 0 mm 3 m/s 742 mmHg 92%
01:00 -2°C° 0 mm 3 m/s 743 mmHg 90%
02:00 -2°C° 0 mm 3 m/s 743 mmHg 88%
03:00 -4°C° 0 mm 3 m/s 743 mmHg 89%
04:00 -3°C° 0 mm 2 m/s 744 mmHg 90%
05:00 -4°C° 0 mm 2 m/s 744 mmHg 90%
06:00 -4°C° 0 mm 2 m/s 744 mmHg 87%
07:00 -4°C° 0 mm 3 m/s 745 mmHg 84%
08:00 -4°C° 0 mm 3 m/s 745 mmHg 80%
09:00 -4°C° 0 mm 3 m/s 746 mmHg 75%
10:00 -2°C° 0 mm 3 m/s 746 mmHg 69%
11:00 -1°C° 0 mm 2 m/s 746 mmHg 63%
12:00 -1°C° 0 mm 3 m/s 746 mmHg 57%
13:00 0°C° 0 mm 3 m/s 747 mmHg 51%
14:00 0°C° 0 mm 3 m/s 747 mmHg 45%
15:00 +1°C° 0 mm 2 m/s 747 mmHg 48%
16:00 -1°C° 0 mm 2 m/s 747 mmHg 51%
17:00 -1°C° 0 mm 2 m/s 747 mmHg 55%
18:00 -2°C° 0 mm 2 m/s 748 mmHg 57%
19:00 -3°C° 0 mm 2 m/s 748 mmHg 59%
20:00 -3°C° 0 mm 2 m/s 749 mmHg 62%
21:00 -4°C° 0 mm 3 m/s 749 mmHg 65%
22:00 -4°C° 0 mm 3 m/s 749 mmHg 68%
23:00 -4°C° 0 mm 4 m/s 750 mmHg 71%

6 Mars, Samedi

Heure Température Précipitation Vent Pression Humidité
00:00 -5°C° 0 mm 3 m/s 750 mmHg 67%
01:00 -5°C° 0 mm 3 m/s 751 mmHg 64%
02:00 -6°C° 0 mm 3 m/s 751 mmHg 60%
03:00 -6°C° 0 mm 3 m/s 751 mmHg 59%
04:00 -6°C° 0 mm 3 m/s 752 mmHg 58%
05:00 -6°C° 0 mm 3 m/s 752 mmHg 57%
06:00 -7°C° 0 mm 4 m/s 752 mmHg 56%
07:00 -7°C° 0 mm 4 m/s 753 mmHg 54%
08:00 -7°C° 0 mm 4 m/s 753 mmHg 53%
09:00 -5°C° 0 mm 4 m/s 753 mmHg 52%
10:00 -5°C° 0 mm 4 m/s 754 mmHg 51%
11:00 -4°C° 0 mm 4 m/s 754 mmHg 49%
12:00 -5°C° 0 mm 5 m/s 754 mmHg 47%
13:00 -5°C° 0 mm 5 m/s 754 mmHg 44%
14:00 -4°C° 0 mm 5 m/s 755 mmHg 41%
15:00 -5°C° 0 mm 5 m/s 754 mmHg 42%
16:00 -4°C° 0 mm 4 m/s 754 mmHg 44%
17:00 -4°C° 0 mm 4 m/s 754 mmHg 45%
18:00 -5°C° 0 mm 4 m/s 754 mmHg 50%
19:00 -5°C° 0 mm 3 m/s 755 mmHg 55%
20:00 -6°C° 0 mm 3 m/s 755 mmHg 60%
21:00 -5°C° 0 mm 4 m/s 754 mmHg 59%
22:00 -5°C° 0 mm 4 m/s 754 mmHg 58%
23:00 -6°C° 0 mm 5 m/s 753 mmHg 58%

7 Mars, Dimanche

Heure Température Précipitation Vent Pression Humidité
00:00 -6°C° 0 mm 5 m/s 753 mmHg 58%
01:00 -6°C° 0 mm 6 m/s 752 mmHg 59%
02:00 -6°C° 0 mm 6 m/s 751 mmHg 60%
03:00 -7°C° 0 mm 7 m/s 750 mmHg 60%
04:00 -6°C° 0 mm 7 m/s 750 mmHg 60%
05:00 -6°C° 0 mm 8 m/s 749 mmHg 61%
06:00 -6°C° 0 mm 8 m/s 748 mmHg 61%
07:00 -6°C° 0 mm 9 m/s 747 mmHg 62%
08:00 -5°C° 0 mm 9 m/s 747 mmHg 63%
09:00 -4°C° 0 mm 9 m/s 746 mmHg 61%
10:00 -4°C° 0 mm 10 m/s 746 mmHg 58%
11:00 -3°C° 0 mm 10 m/s 745 mmHg 56%
12:00 -2°C° 0 mm 10 m/s 744 mmHg 56%
13:00 -2°C° 0 mm 10 m/s 744 mmHg 56%
14:00 0°C° 0 mm 10 m/s 743 mmHg 56%
15:00 -2°C° 0 mm 10 m/s 743 mmHg 62%
16:00 -1°C° 0 mm 9 m/s 743 mmHg 68%
17:00 -3°C° 0 mm 9 m/s 743 mmHg 75%
18:00 -2°C° 0.4 mm 8 m/s 743 mmHg 78%
19:00 -2°C° 0.4 mm 7 m/s 743 mmHg 82%
20:00 -3°C° 0.4 mm 6 m/s 744 mmHg 86%
21:00 -3°C° 0.1 mm 6 m/s 744 mmHg 83%
22:00 -4°C° 0.1 mm 5 m/s 744 mmHg 81%
23:00 -4°C° 0.1 mm 4 m/s 744 mmHg 79%

8 Mars, Lundi

Heure Température Précipitation Vent Pression Humidité
00:00 -4°C° 0 mm 4 m/s 745 mmHg 77%
01:00 -5°C° 0 mm 3 m/s 745 mmHg 76%
02:00 -5°C° 0 mm 3 m/s 745 mmHg 75%
03:00 -5°C° 0 mm 3 m/s 745 mmHg 75%
04:00 -4°C° 0 mm 2 m/s 745 mmHg 74%
05:00 -5°C° 0 mm 2 m/s 745 mmHg 74%
06:00 -4°C° 0 mm 2 m/s 745 mmHg 70%
07:00 -2°C° 0 mm 1 m/s 745 mmHg 66%
08:00 -2°C° 0 mm 1 m/s 745 mmHg 62%
09:00 -2°C° 0 mm 1 m/s 745 mmHg 63%
10:00 -1°C° 0 mm 1 m/s 745 mmHg 64%
11:00 -1°C° 0 mm 1 m/s 745 mmHg 65%
12:00 -3°C° 0.1 mm 2 m/s 745 mmHg 67%
13:00 -3°C° 0.1 mm 2 m/s 744 mmHg 69%
14:00 -3°C° 0.1 mm 2 m/s 744 mmHg 71%
15:00 -4°C° 0 mm 3 m/s 745 mmHg 69%
16:00 -4°C° 0 mm 4 m/s 745 mmHg 68%
17:00 -5°C° 0 mm 5 m/s 745 mmHg 66%
18:00 -6°C° 0 mm 5 m/s 746 mmHg 65%
19:00 -7°C° 0 mm 5 m/s 747 mmHg 64%
20:00 -7°C° 0 mm 5 m/s 748 mmHg 63%
21:00 -8°C° 0 mm 5 m/s 749 mmHg 63%
22:00 -9°C° 0 mm 6 m/s 750 mmHg 62%
23:00 -10°C° 0 mm 6 m/s 751 mmHg 62%
Voir plus

Nous avons besoin de votre consentement

Meteoprog et ses fournisseurs de services peuvent stocker et accéder à des données personnelles telles que des cookies, des identifiants d'appareils ou d'autres technologies similaires sur votre appareil et traiter ces données pour personnaliser le contenu et les publicités, ainsi que pour fournir des fonctionnalités de médias sociaux et analyser le trafic.

  • Stocker et/ou accéder à des informations sur votre appareil

    Des cookies, des identifiants d'appareils ou d'autres informations peuvent être stockés ou accessibles sur votre appareil aux fins indiquées ci-dessus.

  • Annonces et contenus personnalisés, mesure des annonces et des contenus, connaissance de l'audience et développement de produits

    Les annonces et le contenu peuvent être personnalisés en fonction d'un profil. D'autres données peuvent être ajoutées pour mieux personnaliser les annonces et le contenu. Les performances des publicités et du contenu peuvent être mesurées. Il est possible d'obtenir des informations sur le public qui a vu les publicités et le contenu. Ces données peuvent être utilisées pour développer ou améliorer l'expérience de l'utilisateur, les systèmes et les logiciels.

En cliquant sur "J'accepte", vous autorisez l'utilisation de cookies, des identifiants d'appareils, des balises web ou d'autres technologies similaires. Vos paramètres peuvent être modifiés dans le navigateur de votre appareil.

Dans certains cas, des intérêts légitimes peuvent être invoqués plutôt qu'un consentement. Vous pouvez en savoir plus à ce sujet dans notre Politique de confidentialité et de cookies.